Location: Sungai Kamana Besar
(2.6333°N, 113.4333°E)
Time: 05:27:42
(UTC+00:00)

Cosmos 2151 - Pass Details

Date: 29 May 2022
Orbit: 581 x 598 km, 82.5° (Epoch: 26 June)

Event Time Altitude Azimuth Distance (km) Brightness Sun altitude
Rises 21:16:15 0° 174° (S) 2,799 6.3 -14.6°
Reaches altitude 10° 21:18:30 10° 168° (SSE) 1,896 5.4 -14.1°
Maximum altitude 21:22:32 47° 94° (E) 769 4.0 -13.2°
Drops below altitude 10° 21:26:32 10° 19° (NNE) 1,887 6.2 -12.3°
Sets 21:28:47 0° 14° (NNE) 2,784 7.0 -11.7°
